KM4DDJ Weather Reports


time (UTC)temp
C
wind
direction
speed
KPH
gust
KPH
rain 1hr
cm
rain 24hr
cm
rain mn
cm
humidity
%
barometer
mb
20260503212516 17 264 3.2 12.9 0.00 0.00 0.00 43 1018.2
20260503212017 17 236 4.8 12.9 0.00 0.00 0.00 42 1018.3
20260503211537 17 262 8.0 16.1 0.00 0.00 0.00 46 1018.3
20260503211015 17 277 8.0 16.1 0.00 0.00 0.00 42 1018.3
20260503210519 17 297 6.4 11.3 0.00 0.00 0.00 41 1018.3
20260503210035 17 262 1.6 12.9 0.00 0.00 0.00 44 1018.3
20260503205515 17 266 8.0 17.7 0.00 0.00 0.00 43 1018.4
20260503205015 17 309 8.0 17.7 0.00 0.00 0.00 40 1018.4
20260503204535 17 233 9.7 16.1 0.00 0.00 0.00 41 1018.5
20260503204015 17 307 6.4 12.9 0.00 0.00 0.00 43 1018.5
20260503203515 17 303 3.2 12.9 0.00 0.00 0.00 47 1018.6
20260503203035 17 319 4.8 14.5 0.00 0.00 0.00 43 1018.7
20260503202515 17 253 9.7 14.5 0.00 0.00 0.00 41 1018.9
20260503202013 17 229 3.2 17.7 0.00 0.00 0.00 47 1019.0
20260503201532 16 321 6.4 17.7 0.00 0.00 0.00 47 1019.1
20260503201015 16 318 8.0 17.7 0.00 0.00 0.00 42 1019.2
20260503200516 17 314 6.4 16.1 0.00 0.00 0.00 46 1019.3
20260503200034 16 257 4.8 20.9 0.00 0.00 0.00 47 1019.3
20260503195515 16 263 9.7 20.9 0.00 0.00 0.00 45 1019.4
20260503195015 17 278 8.0 16.1 0.00 0.00 0.00 43 1019.5
20260503194534 16 200 4.8 14.5 0.00 0.00 0.00 45 1019.5
20260503194015 16 253 4.8 14.5 0.00 0.00 0.00 43 1019.6
20260503193516 16 269 8.0 17.7 0.00 0.00 0.00 44 1019.6
20260503193039 16 304 8.0 17.7 0.00 0.00 0.00 43 1019.7
20260503192515 16 206 4.8 16.1 0.00 0.00 0.00 44 1019.7
20260503192015 16 175 8.0 16.1 0.00 0.00 0.00 46 1019.9
20260503191534 16 188 6.4 14.5 0.00 0.00 0.00 43 1019.8
20260503191015 16 285 4.8 17.7 0.00 0.00 0.00 47 1019.8
20260503190518 16 0 1.6 17.7 0.00 0.00 0.00 44 1019.9
20260503190044 16 269 4.8 17.7 0.00 0.00 0.00 46 1020.0
20260503185514 16 0 4.8 17.7 0.00 0.00 0.00 44 1019.9
20260503185015 16 288 9.7 17.7 0.00 0.00 0.00 47 1020.0
20260503184532 16 287 3.2 11.3 0.00 0.00 0.00 47 1020.1
20260503184019 16 293 1.6 11.3 0.00 0.00 0.00 51 1020.1
20260503183516 15 0 1.6 16.1 0.00 0.00 0.00 49 1020.2
20260503183037 15 283 6.4 17.7 0.00 0.00 0.00 47 1020.2
20260503182515 15 39 4.8 17.7 0.00 0.00 0.00 46 1020.3
20260503182017 16 278 8.0 17.7 0.00 0.00 0.00 43 1020.4
20260503181531 16 69 0.0 19.3 0.00 0.00 0.00 50 1020.3
20260503181016 16 147 4.8 19.3 0.00 0.00 0.00 49 1020.5
20260503180516 16 165 3.2 11.3 0.00 0.00 0.00 50 1020.6
20260503180039 15 167 3.2 11.3 0.00 0.00 0.00 49 1020.6
20260503175515 15 314 3.2 6.4 0.00 0.00 0.00 50 1020.6
20260503175015 15 29 1.6 12.9 0.00 0.00 0.00 48 1020.6
20260503174534 15 82 3.2 17.7 0.00 0.00 0.00 46 1020.7
20260503174015 15 276 9.7 19.3 0.00 0.00 0.00 49 1020.9
20260503173515 15 268 8.0 19.3 0.00 0.00 0.00 47 1020.8
20260503173041 15 326 3.2 11.3 0.00 0.00 0.00 49 1020.9
20260503172516 15 70 3.2 11.3 0.00 0.00 0.00 48 1020.9
20260503172016 15 0 6.4 11.3 0.00 0.00 0.00 46 1021.0
20260503171540 15 283 1.6 11.3 0.00 0.00 0.00 48 1021.2
20260503171016 15 0 3.2 12.9 0.00 0.00 0.00 48 1021.1
20260503170516 15 236 4.8 12.9 0.00 0.00 0.00 49 1021.3
20260503150516 12 271 3.2 16.1 0.00 0.00 0.00 51 1022.2
20260503131014 10 0 0.0 6.4 0.00 0.00 0.00 62 1022.1
20260503130515 10 105 0.0 6.4 0.00 0.00 0.00 70 1022.1
20260503110516 4 0 0.0 0.0 0.00 0.00 0.00 86 1020.7
20260503081543 6 357 3.2 4.8 0.00 0.00 0.00 79 1019.4
20260503081016 6 6 3.2 4.8 0.00 0.00 0.00 81 1019.2
20260503080516 5 16 0.0 1.6 0.00 0.00 0.00 82 1019.2
20260503072517 6 0 0.0 0.0 0.00 0.00 0.00 81 1019.1
20260503072018 6 0 0.0 0.0 0.00 0.00 0.00 80 1019.1
20260503071535 6 0 0.0 0.0 0.00 0.00 0.00 80 1019.1
20260503071016 6 0 0.0 0.0 0.00 0.00 0.00 79 1019.0
20260503070517 7 0 0.0 0.0 0.00 0.00 0.00 79 1019.0
20260503055016 8 13 0.0 3.2 0.00 0.00 0.00 73 1018.9
20260503054541 8 0 0.0 1.6 0.00 0.00 0.00 74 1018.8
20260503054015 8 11 0.0 1.6 0.00 0.00 0.00 73 1018.9
20260503053515 8 0 0.0 1.6 0.00 0.00 0.00 72 1018.9
20260503053030 8 0 0.0 1.6 0.00 0.00 0.00 71 1018.9
20260503052516 8 0 0.0 1.6 0.00 0.00 0.00 72 1018.9
20260503052013 8 0 0.0 3.2 0.00 0.00 0.00 73 1018.9
20260503051531 8 8 1.6 4.8 0.00 0.00 0.00 73 1018.8
20260503051016 8 14 1.6 4.8 0.00 0.00 0.00 73 1018.8
20260503050517 8 23 0.0 1.6 0.00 0.00 0.00 74 1018.6
20260503050035 8 0 0.0 3.2 0.00 0.00 0.00 75 1018.7
20260503045516 7 340 0.0 3.2 0.00 0.00 0.00 75 1018.6
20260503045017 8 359 1.6 3.2 0.00 0.00 0.00 76 1018.6
20260503044535 8 8 1.6 3.2 0.00 0.00 0.00 76 1018.6
20260503044015 8 2 0.0 1.6 0.00 0.00 0.00 73 1018.4
20260503043515 8 0 0.0 1.6 0.00 0.00 0.00 73 1018.5
20260503043032 8 0 0.0 3.2 0.00 0.00 0.00 74 1018.4
20260503042515 8 335 1.6 3.2 0.00 0.00 0.00 74 1018.4
20260503042016 8 23 0.0 1.6 0.00 0.00 0.00 74 1018.3
20260503041532 8 352 0.0 3.2 0.00 0.00 0.00 72 1018.3
20260503041015 8 0 0.0 3.2 0.00 0.00 0.00 71 1018.4
20260503040518 8 321 0.0 3.2 0.00 0.00 0.00 73 1018.2
20260503040034 8 340 0.0 3.2 0.00 0.00 0.00 74 1018.2
20260503035517 7 350 0.0 3.2 0.00 0.00 0.00 74 1018.2
20260503035016 8 5 1.6 3.2 0.00 0.00 0.00 75 1018.2
20260503034534 7 334 1.6 1.6 0.00 0.00 0.00 75 1018.2
20260503034018 7 321 0.0 1.6 0.00 0.00 0.00 75 1018.2
20260503033514 7 0 0.0 3.2 0.00 0.00 0.00 76 1018.2
20260503033042 7 0 0.0 3.2 0.00 0.00 0.00 76 1018.1
20260503032515 7 0 0.0 1.6 0.00 0.00 0.00 75 1018.1
20260503032014 7 356 0.0 1.6 0.00 0.00 0.00 75 1018.1
20260503031533 7 0 0.0 1.6 0.00 0.00 0.00 76 1018.1
20260503031016 7 21 0.0 1.6 0.00 0.00 0.00 75 1018.1
20260503030515 7 21 0.0 1.6 0.00 0.00 0.00 74 1018.0
20260503030034 8 0 0.0 1.6 0.00 0.00 0.00 74 1018.0
20260503025515 8 20 0.0 1.6 0.00 0.00 0.00 74 1018.0
20260503025015 8 20 0.0 1.6 0.00 0.00 0.00 74 1017.9
20260503024538 8 12 0.0 1.6 0.00 0.00 0.00 73 1017.9
20260503024015 8 0 0.0 4.8 0.00 0.00 0.00 73 1017.9
20260503023516 8 345 0.0 4.8 0.00 0.00 0.00 72 1017.8
20260503023033 8 8 1.6 4.8 0.00 0.00 0.00 72 1017.8
20260503022515 8 15 1.6 4.8 0.00 0.00 0.00 72 1017.6
20260503022014 8 25 1.6 3.2 0.00 0.00 0.00 71 1017.6
20260503021533 8 34 1.6 4.8 0.00 0.00 0.00 70 1017.6
20260503021017 8 34 1.6 9.7 0.00 0.00 0.00 69 1017.7
20260503020517 9 8 1.6 9.7 0.00 0.00 0.00 67 1017.6
20260503020034 9 329 3.2 9.7 0.00 0.00 0.00 68 1017.5
20260503015517 9 15 3.2 8.0 0.00 0.00 0.00 66 1017.4
20260503015016 9 339 4.8 8.0 0.00 0.00 0.00 65 1017.3
20260503014546 10 337 3.2 8.0 0.00 0.00 0.00 65 1017.4
20260503014016 9 349 6.4 8.0 0.00 0.00 0.00 65 1017.3
20260503013516 9 6 4.8 8.0 0.00 0.00 0.00 66 1017.2
20260503013037 9 335 4.8 8.0 0.00 0.00 0.00 66 1017.2
20260503012517 9 1 3.2 6.4 0.00 0.00 0.00 67 1017.1
20260503012015 9 353 3.2 6.4 0.00 0.00 0.00 67 1017.0
20260503011534 10 349 1.6 6.4 0.00 0.00 0.00 65 1017.1
20260503011016 10 349 3.2 4.8 0.00 0.00 0.00 63 1017.0
20260503010516 10 27 4.8 4.8 0.00 0.00 0.00 64 1016.8
20260503010046 10 6 1.6 6.4 0.00 0.00 0.00 62 1016.7
20260503005516 10 15 3.2 6.4 0.00 0.00 0.00 61 1016.7
20260503005016 11 359 1.6 9.7 0.00 0.00 0.00 60 1016.6
20260503004533 11 327 1.6 9.7 0.00 0.00 0.00 59 1016.5
20260503004015 11 331 3.2 9.7 0.00 0.00 0.00 58 1016.4
20260503003517 11 20 4.8 8.0 0.00 0.00 0.00 58 1016.4
20260503003031 11 348 4.8 9.7 0.00 0.00 0.00 57 1016.4
20260503002515 11 343 6.4 9.7 0.00 0.00 0.00 56 1016.4
20260503002015 12 328 6.4 12.9 0.00 0.00 0.00 56 1016.3
20260503001533 12 1 6.4 12.9 0.00 0.00 0.00 55 1016.3
20260503001017 12 340 8.0 14.5 0.00 0.00 0.00 54 1016.2
20260503000520 12 318 8.0 14.5 0.00 0.00 0.00 52 1016.1
20260503000037 13 338 8.0 12.9 0.00 0.00 0.00 53 1016.0
20260502235516 13 340 8.0 20.9 0.00 0.00 0.00 51 1016.0
20260502235017 13 7 8.0 20.9 0.00 0.00 0.00 50 1015.8
20260502234540 13 10 9.7 20.9 0.00 0.00 0.00 50 1015.8
20260502234017 13 320 12.9 20.9 0.00 0.00 0.00 49 1015.8
20260502233516 13 16 6.4 20.9 0.00 0.00 0.00 50 1015.8
20260502233033 13 307 11.3 20.9 0.00 0.00 0.00 49 1015.7
20260502232515 13 354 11.3 20.9 0.00 0.00 0.00 48 1015.7
20260502232016 13 316 9.7 22.5 0.00 0.00 0.00 47 1015.7
20260502231534 13 305 9.7 22.5 0.00 0.00 0.00 46 1015.7
20260502231016 14 315 8.0 17.7 0.00 0.00 0.00 45 1015.6
20260502230516 14 24 9.7 24.1 0.00 0.00 0.00 47 1015.6
20260502230032 14 349 9.7 24.1 0.00 0.00 0.00 47 1015.6
20260502225515 14 326 14.5 24.1 0.00 0.00 0.00 46 1015.5
20260502225014 14 13 6.4 17.7 0.00 0.00 0.00 45 1015.5
20260502224532 14 348 9.7 17.7 0.00 0.00 0.00 46 1015.5
20260502224015 14 311 8.0 19.3 0.00 0.00 0.00 47 1015.6
20260502223515 14 315 11.3 19.3 0.00 0.00 0.00 44 1015.6
20260502223037 15 312 11.3 19.3 0.00 0.00 0.00 43 1015.5
20260502222515 15 305 4.8 19.3 0.00 0.00 0.00 45 1015.5
20260502222017 14 339 9.7 16.1 0.00 0.00 0.00 43 1015.4
20260502221531 15 340 9.7 16.1 0.00 0.00 0.00 43 1015.3
20260502221016 14 323 9.7 17.7 0.00 0.00 0.00 43 1015.3
20260502220516 14 332 9.7 20.9 0.00 0.00 0.00 45 1015.3
20260502220034 14 330 12.9 20.9 0.00 0.00 0.00 46 1015.2
20260502215519 14 300 8.0 16.1 0.00 0.00 0.00 46 1015.3
20260502215016 14 338 6.4 16.1 0.00 0.00 0.00 45 1015.1
20260502214533 14 34 8.0 17.7 0.00 0.00 0.00 45 1015.0
20260502214015 14 34 12.9 20.9 0.00 0.00 0.00 44 1015.1
20260502213516 15 24 11.3 20.9 0.00 0.00 0.00 44 1015.1
20260502213033 15 11 8.0 17.7 0.00 0.00 0.00 45 1015.0